Regional Weather Roundup
Issued by NWS

Home | Current Version | Previous Version | Graphics & Text | Print | Product List | Glossary On
Versions: 1 2 3 4 5 6 7 8 9 10 11 12 13 14 15 16 17 18 19 20 21 22 23 24 25 26 27 28 29 30 31 32 33 34 35 36 37 38 39 40 41 42 43 44 45 46 47 48 49 50
000
ASUS43 KBIS 251210
RWRND

NORTH DAKOTA REGIONAL WEATHER ROUNDUP
NATIONAL WEATHER SERVICE BISMARCK ND
700 AM CDT SUN JUN 25 2017

NOTE: "FAIR" INDICATES FEW OR NO CLOUDS BELOW 12,000 FEET WITH NO
SIGNIFICANT WEATHER AND/OR OBSTRUCTIONS TO VISIBILITY.


NDZ001>003-009>011-017-251300-
NORTHWEST NORTH DAKOTA

CITY           SKY/WX    TMP DP  RH WIND       PRES   REMARKS
WILLISTON      LGT RAIN  52  42  69 CALM      30.28R
6HR MIN TEMP:  46; 6HR MAX TEMP:  53; 6HR PCP: TRACE;

MINOT          MOCLDY    53  41  63 SW7       30.24S
MINOT AFB      MOCLDY    48  45  87 CALM      30.23F
$$

NDZ018>021-031>035-040>046-251300-
SOUTHWEST NORTH DAKOTA

CITY           SKY/WX    TMP DP  RH WIND       PRES   REMARKS
BISMARCK       LGT RAIN  47  40  76 CALM      30.30R
6HR MIN TEMP:  41; 6HR MAX TEMP:  48; 6HR PCP: TRACE;

DICKINSON      PTCLDY    44  33  65 SW8       30.26S
GARRISON         N/A     50  46  86 W7        30.27R
6HR MIN TEMP:  40; 6HR MAX TEMP:  50; 6HR PCP:  0.01;

HETTINGER ARPT CLEAR     41  32  70 SW6       30.32S
$$

NDZ004>008-012>016-024-026-027-054-251300-
NORTHEAST NORTH DAKOTA

CITY           SKY/WX    TMP DP  RH WIND       PRES   REMARKS
GRAND FORKS    MOSUNNY   47  44  90 W6        30.22R
GRND FRKS AFB  SUNNY     48  42  80 NW5       30.23R
DEVILS LAKE    SUNNY     46  44  93 NW3       30.25S
$$

NDZ022-023-025-028>030-036>039-047>053-251300-
SOUTHEAST NORTH DAKOTA

CITY           SKY/WX    TMP DP  RH WIND       PRES   REMARKS
FARGO          SUNNY     49  43  80 NW9       30.22R
6HR MIN TEMP:  45; 6HR MAX TEMP:  54;

JAMESTOWN      SUNNY     48  44  86 W6        30.25R
$$





USA.gov is the U.S. government's official web portal to all federal, state and local government web resources and services.